FENGYUN 1C DEB, 41827

Orbit data source: Space-Track

FENGYUN 1C DEB, 41827 is space debris in SSO originally from a launch on Mon, 10 May 1999 UTC launched from the Taiyaun Space Center, China (TSC). Fengyun 1C debris stems from the Chinese weather satellite Fengyun-1C, which was intentionally destroyed by a Chinese anti-satellite missile in 2007. This event dramatically increased the amount of space debris, with thousands of trackable fragments posing hazards to satellites and human spaceflight. The Fengyun 1C debris cloud has become a focal point in discussions about space sustainability and the need for international regulations to prevent the creation of new debris.

Loading next visibility...
Identifier
41827, 1999-025EYE
Orbit
SSO
Country
Flag of CNCN / PRC
Related business
Manufacturer
Unknown
Mission
Spacecraft
Bus & Motor
Unknown
Mass
Unknown
Launch date (UTC)
1999-05-10 (27 years ago)
Launch vehicle
Unknown
Launch site
Taiyaun Space Center, China (TSC)
Object type
Payload
Rocket body
Debris
Shape & HBR
Unknown shape, 0.1 m
Radar Cross Section
Small (<0.1 m²)

Expand to show TLE details & history
Last TLE update: 2 days ago

TLE from 2 days ago
0 FENGYUN 1C DEB
1 41827U 99025EYE 26255.14534162  .00002123  00000-0  87548-3 0  9996
2 41827  98.7267 328.5452 0058372 141.1725 219.3671 14.26944879512289
Epoch: 2026-09-12T03:29Z
TLE epoch observation values (Epoch: 2026-09-12T03:29:17.515Z)
Latitude
-0.00005°
Longitude
-74.93632°
Altitude
837.391 km
Speed
7.417 km/s
True Right ascension
21h 54m 10s
True Declination
0° 00' 00"
Sunlit
Object was in full shadow at epoch
Visualization orbit readout
Latitude
Unknown
Longitude
Unknown
Altitude
Unknown
Speed
Unknown
Apparent Right ascension
Unknown
Apparent Declination
Unknown
Sunlit
N/A
Visualization observer readout
Local Sidereal Time
16:56:26
Azimuth
Unknown
Elevation
Unknown
Doppler factor
Unknown
Orbital elements
Apogee altitude
841.006 km
Perigee altitude
757.216 km
Semi-major axis
7,177.248 km
Eccentricity
0.00584
Inclination
98.7267°
RAAN
328.5452°
Arg. of periapsis
141.1725°
True anomaly
218.94521°
Mean anomaly
219.3671°
Eccentric anomaly
219.15592°
Mean motion
3.56949 °/min
Orbital period
100.85 mins
BSTAR
0.00087548
Loading maneuver chart data...
Computing Atmospheric mass density...
Loading historical data...
Loading historical data...
Loading historical data...
Loading historical data...
Loading historical data...
Loading historical data...
Loading historical data...

Documentation

Showing up to 5 results
|